Flag for Germany Weather past 2 weeks in Münster, North Rhine-Westphalia, Germany

Now
45 °F

Sprinkles. Partly sunny.


Feels Like: 35 °F
Forecast: 36 / 45 °F
Wind: 25 mph from Southwest

Location: Muenster / Osnabrueck

Current Time: Dec 20, 2014 at 12:46:58 PM

Latest Report: Dec 20, 2014 at 12:20 PM


Visibility: N/A

Pressure: 29.98 "Hg

Humidity: 81%

Dew point: 39 °F

Location of MünsterLocation

Historic Weather in Münster — Graph

°F

Münster temperature yesterday

Maximum temperature yesterday: 54 °F (at 12:20 AM)
Minimum temperature yesterday: 43 °F (at 8:50 PM)
Average temperature yesterday: 49 °F

Past Weeks' High & Low Weather Summary

 TemperatureHumidityPressure
High55 °F (Dec 18, 6:20 PM)100% (Dec 6, 3:20 AM)30.36 "Hg (Dec 6, 3:20 AM)
Low34 °F (Dec 14, 1:20 AM)70% (Dec 10, 4:50 AM)29.33 "Hg (Dec 12, 12:50 PM)
Average42 °F90%29.90 "Hg
* Reported Dec 5 11:20 AM — Dec 20 11:50 AM, Münster, Weather by CustomWeather, © 2014

Note: Actual official high and low records may vary slightly from our data, if they occured in-between our weather recording intervals... More about our weather records

Advertising

Münster weather history for previous 24 hours

 ConditionsComfort  
Time TempWeatherWind HumidityBarometerVisibility
11:50 AM
Dec 20
45 °FBroken clouds.21 mph81%29.98 "HgN/A
11:20 AM45 °FBroken clouds.21 mph81%29.98 "HgN/A
10:50 AM43 °FSprinkles. Broken clouds.22 mph87%30.01 "HgN/A
10:20 AM45 °FSprinkles. Broken clouds.21 mph81%30.01 "HgN/A
9:50 AM45 °FBroken clouds.20 mph81%30.01 "HgN/A
9:20 AM45 °FBroken clouds.22 mph81%30.01 "HgN/A
8:50 AM45 °FBroken clouds.21 mph81%30.01 "HgN/A
8:20 AM45 °FPartly cloudy.20 mph81%30.01 "HgN/A
7:50 AM43 °FPartly cloudy.20 mph87%30.01 "HgN/A
7:20 AM43 °FPassing clouds.17 mph87%30.01 "HgN/A
6:50 AM45 °FPassing clouds.18 mph81%30.04 "HgN/A
6:20 AM43 °FPassing clouds.20 mph87%30.04 "HgN/A
5:50 AM43 °FPartly cloudy.17 mph81%30.04 "HgN/A
5:20 AM43 °FPartly cloudy.15 mph81%30.04 "HgN/A
4:50 AM43 °FPassing clouds.15 mph81%30.04 "HgN/A
4:20 AM43 °FPassing clouds.15 mph81%30.04 "HgN/A
3:50 AM43 °FPassing clouds.16 mph81%30.04 "HgN/A
3:20 AM43 °FPassing clouds.14 mph81%30.04 "HgN/A
2:50 AM43 °FPassing clouds.17 mph81%30.04 "HgN/A
2:20 AM43 °FPassing clouds.17 mph81%30.04 "HgN/A
1:50 AM43 °FPassing clouds.18 mph81%30.04 "HgN/A
1:20 AM43 °FPassing clouds.16 mph81%30.04 "HgN/A
12:50 AM43 °FPassing clouds.17 mph81%30.01 "HgN/A
12:20 AM43 °FPassing clouds.16 mph81%30.01 "HgN/A
11:50 PM
Dec 19
43 °FClear.17 mph81%30.01 "Hg10 mi
11:20 PM43 °FClear.17 mph81%30.01 "Hg10 mi
10:50 PM43 °FPassing clouds.16 mph81%30.01 "HgN/A
10:20 PM45 °FPassing clouds.17 mph76%29.98 "HgN/A
9:50 PM45 °FPassing clouds.15 mph76%29.98 "HgN/A
9:20 PM43 °FPassing clouds.13 mph81%29.98 "HgN/A
8:50 PM43 °FPassing clouds.15 mph81%29.98 "HgN/A
8:20 PM45 °FPassing clouds.14 mph76%29.98 "HgN/A
7:50 PM45 °FPassing clouds.13 mph81%29.98 "HgN/A
7:20 PM45 °FPassing clouds.14 mph81%29.95 "HgN/A
6:50 PM45 °FPassing clouds.14 mph81%29.92 "HgN/A
6:20 PM45 °FPassing clouds.14 mph81%29.92 "HgN/A
5:50 PM45 °FPassing clouds.16 mph81%29.89 "HgN/A
5:20 PM45 °FPassing clouds.14 mph81%29.89 "HgN/A
4:50 PM45 °FPartly cloudy.12 mph81%29.86 "HgN/A
4:20 PM46 °FPassing clouds.14 mph76%29.86 "HgN/A
3:50 PM46 °FPartly sunny.15 mph76%29.86 "HgN/A
3:20 PM46 °FPartly sunny.14 mph82%29.83 "HgN/A
2:50 PM46 °FBroken clouds.14 mph82%29.83 "HgN/A
2:20 PM48 °FBroken clouds.12 mph87%29.80 "HgN/A
1:50 PM48 °FBroken clouds.9 mph87%29.80 "HgN/A
1:20 PM48 °FPartly sunny.9 mph87%29.80 "HgN/A
12:50 PM48 °FLight rain. Partly sunny.12 mph87%29.80 "HgN/A
12:20 PM48 °FLight rain. Broken clouds.14 mph100%29.77 "HgN/A
Weather by CustomWeather, © 2014

See weather overviewHow to use our weather pages